Location: Alsip
(41.6689°N, 87.7387°W)
Time: 01:33:36
(UTC+00:00)

Daily predictions for brighter satellites

Satellite Brightness Start Highest point End
(mag) Time Altitude Azimuth Time Altitude Azimuth Time Altitude Azimuth
Cosmos 1812 Rocket 4.5 01:50:51 10° NNW 01:55:03 50° W 01:59:14 10° SSW
Cosmos 2221 4.4 01:52:39 10° NNE 01:55:11 15° ENE 01:57:43 10° ESE
Cosmos 2333 Rocket 2.4 01:49:53 10° SSW 01:55:35 83° WNW 02:01:21 10° NNE
Cosmos 1455 2.8 01:52:43 10° NNW 01:56:33 61° W 02:00:21 10° S
USA 186 3.5 01:54:20 10° SSW 01:57:15 32° W 02:00:03 10° NNW
Cosmos 1538 Rocket 4.0 01:52:34 10° SSW 01:57:54 75° ESE 02:03:13 10° NNE
NOSS 0 Rocket 4.2 01:53:19 10° S 01:59:07 46° ESE 02:04:58 10° NE
SPOT 3 Rocket 3.6 01:53:58 10° SSE 01:59:09 70° ENE 02:04:22 10° N
DMSP B5D2-2 4.1 01:54:41 10° NNE 01:59:56 90° ESE 02:05:08 10° SSW
Cosmos 2084 3.7 01:56:57 10° NW 02:01:24 71° WSW 02:05:47 10° SSE
Cosmos 2278 Rocket 3.0 01:56:17 10° N 02:01:34 38° ENE 02:06:47 10° SE
Alouette 2 Rocket 4.3 02:07:13 10° N 02:11:48 85° ENE 02:18:50 10° SSE
SL-16 R/B 3.8 02:10:12 10° SE 02:13:20 15° E 02:16:28 10° ENE
Meteor 1-27 4.5 02:14:37 10° N 02:20:20 58° ENE 02:26:04 10° SSE
Genesis I 3.2 02:16:27 10° SSW 02:20:21 87° WNW 02:24:15 10° NNE
Terra 3.9 02:19:17 10° E 02:21:15 13° ENE 02:23:14 10° NE
IGS 5A 4.4 02:20:02 12° SE 02:23:17 32° ENE 02:26:59 10° N
Spot 2 Rocket 4.2 02:19:25 11° SE 02:23:52 40° ENE 02:28:37 10° N
BREEZE M DEB (TANK) 2.1 02:28:44 10° NW 02:31:30 53° NNE 02:32:49 18° E
BREEZE M DEB (TANK) 3.8 02:28:23 10° SSW 02:32:10 50° SE 02:45:00 10° ENE
Cosmos 2058 3.9 02:33:45 16° SE 02:36:12 28° E 02:39:44 10° NNE
Cosmos 1315 Rocket 2.8 02:34:18 10° N 02:38:27 87° ENE 02:42:08 13° S
Cosmos 2074 Rocket 4.2 02:35:19 10° SSE 02:41:19 53° E 02:47:19 10° NNE
Cosmos 1980 3.7 02:44:20 10° SSW 02:49:59 87° WNW 02:55:40 10° NNE
Cosmos 44 3.0 02:46:07 10° SSW 02:50:20 60° ESE 02:54:41 10° NE
ISS -3.0 02:48:13 10° SSW 02:51:12 30° SE 02:54:13 10° ENE
Elektron 1 3.8 02:48:46 10° SSW 02:51:37 67° SE 02:55:36 10° NE
Cosmos 1680 Rocket 3.5 02:46:39 10° SSW 02:51:56 75° ESE 02:57:16 10° NNE
DELTA 2 R/B (1) 3.5 02:46:56 10° W 02:52:29 72° S 02:57:10 15° ESE
Cosmos 2181 Rocket 4.2 02:49:27 10° N 02:55:43 74° W 03:01:50 10° S
Cosmos 2219 Rocket 4.2 02:51:24 10° WSW 02:56:17 30° NW 03:01:12 10° N
Cosmos 1892 2.8 02:56:31 23° SSE 02:58:36 52° E 03:02:20 10° NNE
Lacrosse 5 rocket 3.7 02:56:17 10° NNW 02:58:58 17° NNE 03:01:33 10° ENE
Geosat 4.0 02:55:58 19° SSE 02:59:38 79° WSW 03:04:41 10° NNW
Aureole 2 Rocket 3.7 03:00:31 10° N 03:02:57 22° ENE 03:03:33 21° E
ATLAS CENTAUR R/B 3.7 03:03:47 10° W 03:05:26 13° WSW 03:07:05 10° SW
Cosmos 2237 Rocket 2.5 03:00:31 10° SSW 03:06:12 70° WNW 03:11:54 10° NNE
Cosmos 158 Rocket 3.8 03:02:52 10° SSW 03:07:44 84° WNW 03:12:41 10° NNE
Meteor 2-17 Rocket 4.4 03:02:52 13° S 03:08:16 72° E 03:14:17 10° NNE
Landsat 7 3.9 03:07:35 20° S 03:10:51 78° WSW 03:15:38 10° NNW
NOSS 3-4 (A) 3.9 03:03:45 10° NW 03:10:53 89° NE 03:16:06 23° SSE
NOSS 3-4 (C) 3.9 03:03:52 10° NW 03:11:00 89° NE 03:16:12 23° SE
Resurs 01 Rocket 3.3 03:09:31 10° SSW 03:13:21 29° W 03:17:12 10° NW
Gbstr 26 Del rocket 2.9 03:09:48 10° WSW 03:13:34 69° NNW 03:17:19 10° NE
Cosmos 1943 Rocket 3.9 03:10:44 10° N 03:15:05 22° NE 03:18:23 14° E
ERS-1 Rocket 3.0 03:16:30 28° SSE 03:19:09 70° ENE 03:24:11 10° N
Cosmos 1842 Rocket 4.2 03:17:14 10° NNW 03:21:26 52° W 03:24:16 20° SSW
Cosmos 1610 Rocket 4.5 03:20:18 19° S 03:24:58 76° E 03:31:21 10° N
Cosmos 1825 2.5 03:26:00 41° ESE 03:26:29 43° E 03:30:06 10° NNE
Cosmos 371 Rocket 4.4 03:23:05 10° N 03:27:27 32° ENE 03:29:12 25° E
Cosmos 2344 3.5 03:19:58 10° SSW 03:27:34 85° SE 03:35:27 10° NE
SPOT 1/Viking Rocket 3.8 03:26:28 24° S 03:29:37 66° WSW 03:34:47 10° NNW
COSMOS 2455 3.9 03:24:28 10° NNW 03:30:00 36° NE 03:33:19 21° ESE
Cosmos 1624 Rocket 3.9 03:26:08 10° NNW 03:31:22 78° ENE 03:33:35 35° SSE
Cosmos 1408 2.4 03:30:37 48° S 03:31:33 83° E 03:35:08 10° N
Cosmos 2221 3.3 03:28:52 10° NNW 03:33:02 46° W 03:35:30 22° SSW
BREEZE-M DEB (TANK) 2.3 03:27:09 10° WNW 03:34:04 89° NNE 03:34:51 50° ESE
Cosmos 1869 4.4 03:31:34 10° NNW 03:35:23 40° W 03:37:35 21° SSW
ATLAS 2AS CENTAUR R/B 2.9 03:30:48 10° NW 03:38:13 68° WSW 03:41:54 30° SSE
CARTOSAT-1 3.6 03:38:11 37° S 03:39:49 72° WSW 03:44:09 10° NNW
USA 215 3.5 03:36:28 10° ENE 03:42:40 43° SE 03:46:24 23° S
SPOT 5 2.8 03:41:55 36° S 03:43:52 79° WSW 03:48:31 10° NNW
Cosmos 2151 3.0 03:43:45 50° SSE 03:44:36 63° E 03:48:49 10° NNE
Cosmos 2278 Rocket 3.5 03:40:34 10° NW 03:45:31 32° WSW 03:48:54 17° SSW
CZ-4C R/B 4.0 03:44:34 10° NNW 03:51:07 37° NE 03:56:51 16° ESE
GEOS 3 Rocket 3.6 03:48:41 10° NE 03:54:08 84° SE 03:58:53 14° SW
SL-16 R/B 2.3 03:51:42 13° SSW 03:56:43 74° WNW 04:02:26 10° NNE
Cosmos 2297 3.6 03:51:29 10° NNW 03:57:15 88° ENE 03:59:13 43° SSE
JB-3 4.1 03:54:23 10° NNE 03:58:12 67° E 03:58:14 67° ESE
Terra 1.8 03:56:54 46° S 03:58:20 78° WSW 04:03:07 10° NNW
Cosmos 1933 4.0 04:00:59 10° N 04:04:46 40° ENE 04:04:46 40° ENE
Cosmos 2366 rocket 4.4 04:03:46 39° SE 04:05:33 49° E 04:11:37 10° NNE
Cosmos 1420 Rocket 3.9 04:02:49 10° NNW 04:08:09 85° ENE 04:09:30 52° SSE
Cosmos 1328 Rocket 3.9 04:05:57 10° N 04:10:09 48° E 04:10:19 48° E
Cosmos 2218 Rocket 4.2 04:09:50 42° SE 04:11:40 57° E 04:17:47 10° NNE
Cosmos 44 Rocket 3.6 04:13:02 46° E 04:13:02 46° E 04:17:04 10° NE
Cosmos 1766 Rocket 3.4 04:15:19 70° S 04:15:48 89° E 04:20:15 10° N
GP-B 3.8 04:15:51 10° NNE 04:19:50 39° E 04:19:50 39° E
Thor Agena Rocket 3.7 04:17:02 10° NNE 04:21:59 51° E 04:22:14 50° ESE
Cosmos 1048 Rocket 3.9 04:26:12 61° SSE 04:26:55 70° ESE 04:32:08 10° NNE
ISS -2.2 04:24:47 10° W 04:27:56 36° NNW 04:31:05 10° NE
Cosmos 2369 Rocket 2.5 04:26:18 10° NNW 04:31:50 56° ENE 04:33:06 46° ESE
Cosmos 1603 3.7 04:32:09 57° SE 04:32:47 61° ESE 04:38:26 10° NNE
Cosmos 1151 Rocket 2.9 04:30:00 10° N 04:34:16 84° W 04:34:16 84° W
SL-8 Rocket 3.9 04:32:32 44° SSW 04:34:39 80° W 04:40:51 10° N
Cosmos 1633 3.8 04:39:16 35° NE 04:39:16 35° NE 04:41:35 10° NNE
DELTA 2 R/B (1) 4.1 04:33:23 10° W 04:37:54 42° SW 04:37:54 42° SW
Lacrosse 5 rocket 1.5 04:34:46 10° NW 04:38:15 62° NNW 04:38:15 62° NNW
EO 1 Del DPAF 4.0 04:36:30 10° NNE 04:39:16 44° NE 04:39:16 44° NE
Cosmos 332 Rocket 3.7 04:37:05 10° NNW 04:41:52 70° WSW 04:42:08 68° SW
Cosmos 1743 Rocket 4.1 04:43:00 45° ENE 04:43:00 45° ENE 04:46:37 10° NNE
Cosmos 1110 Rocket 4.5 04:39:41 10° N 04:44:50 49° ENE 04:45:38 45° E
Cosmos 1606 3.8 04:45:03 10° NNW 04:48:26 39° W 04:48:26 39° W
RESURS DK-1 2.8 04:46:28 10° NNW 04:50:10 58° NNE 04:50:10 58° NNE
Cosmos 1452 Rocket 3.6 04:46:00 10° NNW 04:51:11 60° WSW 04:51:41 57° SW
Cosmos 1340 3.9 04:56:54 35° WNW 04:56:54 35° WNW 05:00:13 10° N
IRIDIUM 104 4.4 04:58:13 59° SW 04:58:56 66° W 05:04:08 10° N
Cosmos 1943 Rocket 2.3 04:53:42 10° NNW 04:59:17 61° WSW 04:59:53 57° SW
Cosmos 1408 Rocket 4.0 04:59:14 52° W 04:59:23 52° W 05:03:44 10° N
Cosmos 1727 Rocket 3.9 04:54:30 10° N 05:00:49 86° E 05:02:04 60° SSE
Meteor 2-3 Rocket 4.1 05:04:39 44° SW 05:06:07 57° WNW 05:11:47 10° N
Lacrosse 5 2.9 05:08:05 34° E 05:08:05 34° E 05:11:16 10° NE
Cosmos 1269 Rocket 4.1 05:08:42 61° E 05:08:42 61° E 05:13:44 10° NNE
SL-4 R/B 4.4 05:12:40 11° NNE 05:12:40 11° NNE 05:12:45 10° NNE
Cosmos 1500 Rocket 3.7 05:12:10 69° NNW 05:12:10 69° NNW 05:16:05 10° N
Cosmos 2228 Rocket 3.3 05:07:22 10° N 05:11:32 68° NE 05:11:32 68° NE
Meteor 2-6 Rocket 4.2 05:07:22 10° N 05:12:43 60° ENE 05:13:06 58° E
Spot 4 4.1 05:13:53 56° W 05:13:53 56° W 05:18:31 10° NNW
COSMOS 2455 3.4 05:10:22 10° NW 05:15:59 41° WSW 05:16:26 40° WSW
Cosmos 2263 4.1 05:12:01 10° NNW 05:17:48 86° WSW 05:18:21 74° S
BREEZE-M DEB (TANK) 4.4 05:18:09 10° WNW 05:18:38 13° WNW 05:18:38 13° WNW
Cosmos 494 Rocket 4.2 05:20:25 57° WSW 05:21:02 62° WNW 05:26:09 10° NNE
Cosmos 1346 Rocket 4.3 05:24:09 30° WNW 05:24:09 30° WNW 05:27:24 10° N
USA 215 3.7 05:19:21 10° NE 05:25:46 59° NW 05:32:09 10° WSW
Cosmos 1943 3.5 05:25:12 48° WSW 05:26:30 61° WNW 05:32:07 10° NNE
Helios 1A 3.9 05:28:41 41° NE 05:28:41 41° NE 05:32:06 10° N
Cosmos 1805 Rocket 4.0 05:30:58 57° NNE 05:30:58 57° NNE 05:34:33 10° N
Cosmos 1607 3.8 05:32:17 62° SW 05:33:26 87° WNW 05:39:46 10° NNE
Cosmos 1782 4.2 05:30:23 10° NNW 05:33:08 34° WNW 05:33:08 34° WNW
ALOS 2 3.1 05:37:28 54° WNW 05:37:28 54° WNW 05:41:09 10° NNW
CZ-4C R/B 3.1 05:32:48 10° NW 05:40:11 65° WSW 05:42:00 52° S
Meteor 1-10 Rocket 4.0 05:36:26 10° N 05:42:00 89° ENE 05:42:18 81° SSE
Cosmos 1656 Rocket 3.5 05:36:51 10° NNW 05:42:17 78° WSW 05:42:19 78° WSW
USA 267 3.2 05:54:08 44° SE 05:56:30 85° NE 06:03:05 10° NW
Cosmos 1821 Rocket 4.2 05:55:30 49° WSW 05:56:34 56° W 06:02:33 10° N
Sich 1 3.6 06:01:23 56° NNW 06:01:23 56° NNW 06:05:01 10° N
Cosmos 1707 Rocket 3.9 05:57:02 10° N 06:00:48 63° N 06:00:48 63° N
Meteor 1-27 Rocket 3.6 05:59:19 10° N 06:05:01 86° E 06:05:28 76° SSE
ISS -0.6 06:03:16 10° NW 06:05:25 16° N 06:07:34 10° NNE
USA 32 3.9 06:05:50 78° W 06:05:53 78° W 06:11:12 10° N
Cosmos 2123 Rocket 3.8 06:01:02 10° N 06:07:15 86° W 06:08:02 70° S
Cosmos 724 4.2 06:08:14 68° ESE 06:08:18 68° ESE 06:14:04 10° NE
Cosmos 1535 Rocket 4.4 06:08:44 64° SW 06:09:43 77° W 06:16:00 10° N
Meteor 2-20 4.3 06:03:53 10° N 06:10:03 79° W 06:10:48 68° SSW
Cosmos 1812 4.2 06:06:44 10° NNW 06:09:08 33° NW 06:09:08 33° NW
Cosmos 1633 Rocket 3.4 06:11:54 62° NNE 06:11:54 62° NNE 06:15:37 10° N
Cosmos 292 Rocket 4.0 06:08:55 10° NNW 06:13:03 62° NW 06:13:03 62° NW
Cosmos 2369 Rocket 3.9 06:11:21 10° NW 06:14:52 20° W 06:14:52 20° W
Cosmos 389 Rocket 4.4 06:12:33 10° NNW 06:14:17 27° NNW 06:14:17 27° NNW
Cosmos 1992 Rocket 4.3 06:11:10 10° NNW 06:16:21 57° ENE 06:16:57 54° E
Cosmos 1862 Rocket 3.9 06:19:02 10° N 06:23:02 64° NE 06:23:02 64° NE
PSLV R/B 3.8 06:22:01 10° N 06:25:45 66° N 06:25:45 66° N
Cosmos 1605 Rocket 3.9 06:25:58 65° SSW 06:26:58 84° W 06:33:16 10° N
Cosmos 1934 Rocket 4.4 06:29:28 46° WSW 06:30:35 51° WNW 06:36:43 10° N
Cosmos 1153 Rocket 4.5 06:31:31 58° SE 06:32:34 69° E 06:38:41 10° NNE
Cosmos 2251 Rocket 3.3 06:34:03 82° WSW 06:34:12 83° WNW 06:39:29 10° NNE
Resurs 1-4 Rocket 3.6 06:30:27 10° NE 06:34:45 24° E 06:35:35 23° ESE
Meteor 1-4 Rocket 3.8 06:35:37 10° N 06:38:07 40° N 06:38:07 40° N
SL-8 R/B 4.0 06:40:24 60° E 06:40:24 60° E 06:44:24 10° ENE
Cosmos 2242 Rocket 4.1 06:36:46 10° N 06:41:15 53° E 06:41:16 53° E
CZ-4 R/B 4.2 06:41:37 10° N 06:46:16 54° WNW 06:46:22 53° WNW
Okean 1 4.1 06:43:14 10° N 06:46:39 47° NE 06:46:39 47° NE
Lacrosse 5 3.2 06:47:13 24° W 06:49:28 36° NNW 06:54:10 10° NNE
Cosmos 1933 Rocket 3.7 06:51:59 72° NNE 06:51:59 72° NNE 06:55:54 10° N
Cosmos 2173 Rocket 4.2 06:56:53 48° SSE 06:58:34 65° E 07:04:48 10° NNE
Helios 1B rocket 3.3 06:54:47 10° N 06:58:16 41° NW 06:58:16 41° NW
Cosmos 1437 Rocket 4.4 06:55:22 10° NNE 06:58:49 27° ENE 06:59:27 26° E
MOZ.5/SAFIR/RUBIN 5/SL-8 4.3 07:00:30 46° ESE 07:01:25 54° ENE 07:06:05 10° N
IRAS Rocket 4.5 07:00:59 42° SE 07:02:41 63° ENE 07:08:08 10° N
Iridium 4 Rocket 3.9 07:03:21 53° WSW 07:03:57 55° W 07:09:15 10° N
Cosmos 1703 Rocket 3.6 07:02:07 10° N 07:06:34 71° E 07:06:39 71° E
Cosmos 1190 Rocket 4.5 07:07:27 44° SE 07:08:08 47° ESE 07:13:09 10° NNE
Cosmos 2016 Rocket 4.5 07:07:36 37° SE 07:09:38 52° E 07:15:37 10° NNE
Meteor 2-4 Rocket 4.4 07:06:10 10° N 07:11:58 51° ENE 07:14:40 29° SE
Cosmos 405 Rocket 3.1 07:13:18 61° NNE 07:13:18 61° NNE 07:16:28 10° N
SL-19 R/B 4.5 07:07:12 10° NNE 07:13:33 80° WNW 07:15:11 52° SSW
Meteor 1-14 Rocket 4.1 07:12:41 62° S 07:13:41 88° E 07:19:22 10° N
ATLAS 5 CENTAUR R/B 3.8 07:11:04 10° NNW 07:14:31 46° NE 07:25:10 10° SE
SL-16 R/B 2.8 07:12:18 31° SE 07:15:23 64° ENE 07:21:35 10° N
Cosmos 1500 3.9 07:17:59 48° ENE 07:17:59 48° ENE 07:21:23 10° NNE
DELTA 2 DEB (DPAF) 4.1 07:17:30 73° SE 07:17:51 80° ENE 07:22:19 10° N
Cosmos 1697 Rocket 3.9 07:15:59 10° N 07:21:13 38° ENE 07:26:25 10° SE
SeaSat 1 3.0 07:18:36 10° NE 07:23:22 46° ESE 07:24:07 42° SE
Cosmos 614 Rocket 3.8 07:22:45 64° SW 07:23:26 75° WNW 07:28:35 10° NNE
CZ-4B R/B 4.3 07:22:53 10° NNE 07:27:38 41° E 07:28:58 34° SE
Cosmos 220 Rocket 4.1 07:24:32 10° NNW 07:28:47 68° ENE 07:29:21 59° ESE
Cosmos 2082 Rocket 3.2 07:28:05 29° SE 07:29:54 36° ESE 07:35:04 10° NE
CZ-2D R/B 2.1 07:27:36 10° NNE 07:32:59 80° ESE 07:34:24 51° S
Cosmos 1833 Rocket 2.8 07:31:40 48° SSE 07:33:04 65° ESE 07:38:39 10° NNE
Cosmos 1666 4.0 07:32:42 30° ESE 07:33:09 31° E 07:36:31 10° NNE
Cosmos 1140 Rocket 3.5 07:32:14 56° S 07:33:17 76° ESE 07:38:32 10° NNE
CZ-4C R/B 3.2 07:34:23 79° ENE 07:34:23 79° ENE 07:38:04 10° N
Aureole 1 Rocket 3.5 07:33:50 51° SSE 07:34:41 60° ESE 07:40:19 10° NNE
Cosmos 1515 4.1 07:32:10 10° NNW 07:35:23 53° NW 07:35:23 53° NW
Cosmos 407 Rocket 3.5 07:36:02 55° SW 07:37:11 77° WNW 07:42:34 10° NNE
COSMOS 2406 3.2 07:37:53 49° SW 07:39:29 76° WNW 07:45:17 10° NNE
Cosmos 1656 3.5 07:34:27 10° NNW 07:39:55 86° WSW 07:41:57 40° SSE
USA 267 4.4 07:41:27 24° WSW 07:41:27 24° WSW 07:45:16 10° WNW
Abrixas rocket 4.3 07:41:01 16° NW 07:42:37 24° N 07:45:04 10° ENE
ISS -0.8 07:40:42 10° NNW 07:43:10 18° NNE 07:45:37 10° ENE
Cosmos 2100 Rocket 4.3 07:44:01 39° SW 07:45:54 51° WNW 07:51:59 10° N
Okean 1-7 3.5 07:42:56 10° NNW 07:47:06 45° W 07:47:06 45° W
Cosmos 1023 Rocket 4.4 07:47:52 51° SW 07:49:12 76° WNW 07:54:29 10° NNE
Cosmos 1459 Rocket 4.3 07:50:53 37° WSW 07:52:45 49° WNW 07:58:42 10° N
Cosmos 2346 Rocket 4.3 07:47:01 10° N 07:53:12 81° W 07:55:55 35° S
Cosmos 2233 Rocket 4.2 07:53:28 28° SSE 07:56:46 65° E 08:02:58 10° NNE
Cosmos 1733 Rocket 3.5 07:57:58 38° SSE 07:59:19 56° E 08:03:33 10° NNE
Cosmos 676 Rocket 4.0 07:57:50 44° S 07:59:34 83° ESE 08:04:54 10° NNE
ARIANE 5 R/B 4.0 07:56:36 10° NE 08:01:07 31° E 08:04:30 16° SSE
BREEZE-M DEB (TANK) 3.3 07:59:12 10° WNW 08:01:59 81° NNE 08:11:14 10° ESE
Cosmos 1802 Rocket 4.4 08:02:20 34° SW 08:04:44 50° WNW 08:10:58 10° N
Meteor 1-13 Rocket 4.2 07:59:20 10° N 08:05:05 88° E 08:08:17 27° S
UNK 4.0 08:06:27 43° WSW 08:07:02 45° W 08:11:30 10° NNW
deb Kosmos-1763 4.3 08:06:43 50° SE 08:07:13 56° ESE 08:10:46 10° NNE
ADEOS II 2.3 08:04:29 10° NNE 08:09:45 68° ESE 08:12:21 30° S
AQUA 3.9 08:05:40 10° N 08:10:24 65° WNW 08:11:55 41° SW
NPP 3.9 08:07:30 10° N 08:12:45 54° WNW 08:14:50 34° SW
Resurs 1-4 Rocket 2.7 08:09:42 10° N 08:14:42 43° WNW 08:16:39 31° WSW
Cosmos 1356 3.8 08:19:03 41° SSE 08:19:58 57° E 08:23:21 10° NNE
Cosmos 1725 Rocket 4.3 08:19:52 31° SW 08:22:39 52° WNW 08:28:44 10° N
Okean 3 3.8 08:19:58 10° NNW 08:23:58 44° W 08:24:46 39° SW
Cosmos 1536 2.9 08:25:47 42° SW 08:26:56 62° W 08:30:57 10° N
ATLAS 5 CENTAUR R/B 3.0 08:24:36 10° NNW 08:30:18 60° NE 08:36:53 10° SE
Lacrosse 5 4.4 08:30:46 10° NW 08:33:46 15° N 08:36:47 10° NNE
Cosmos 1437 Rocket 4.3 08:31:53 10° NW 08:34:49 21° W 08:34:49 21° W
CENTAUR R/B 4.5 08:31:28 10° SSE 08:35:17 18° ESE 08:39:26 10° ENE
Gbstr 26 Del rocket 3.5 08:32:01 10° NW 08:36:16 66° NNE 08:41:26 10° ESE
H-2A R/B 4.0 08:33:21 10° SE 08:37:08 29° ENE 08:40:53 10° N
Cosmos 2369 3.8 08:31:31 10° NNW 08:37:09 59° WSW 08:42:09 13° S
Cosmos 1980 Rocket 2.3 08:31:35 10° NNW 08:37:20 83° ENE 08:43:00 10° SSE
Tsikada Rocket 4.4 08:34:16 10° NNW 08:40:24 48° W 08:44:16 22° SSW
Cosmos 921 Rocket 3.0 08:37:03 10° NNW 08:41:23 61° WSW 08:44:02 22° S
IRS-P3 4.1 08:38:21 10° N 08:43:41 74° WNW 08:47:05 23° SSW
IDEFIX/ARIANE 42P 3.4 08:39:49 10° NNE 08:44:50 47° E 08:49:47 10° S
BREEZE-M DEB (TANK) 3.4 08:45:08 10° WNW 08:49:08 48° N 08:51:51 10° E
Meteor 2-11 Rocket 4.4 08:44:46 20° SSW 08:49:12 78° W 08:55:18 10° N
ERS-2 3.8 08:48:15 10° SE 08:51:33 33° ENE 08:54:52 10° N
Cosmos 1378 Rocket 3.5 08:48:07 10° N 08:52:33 81° W 08:56:31 13° S
Meteor 1-28 Rocket 3.0 08:51:07 15° S 08:54:10 85° WSW 08:57:55 10° NNW
Cosmos 2278 3.7 08:51:51 10° NNW 08:57:29 60° WSW 09:03:04 10° S
SL-16 R/B 3.8 08:57:24 18° WSW 08:59:26 20° W 09:03:58 10° NW
SL-16 R/B 3.7 08:54:44 10° N 09:00:02 39° ENE 09:05:18 10° SE
SeaSat 1 3.9 08:56:34 10° N 09:00:37 26° NW 09:03:54 14° W
ERBS 4.2 08:59:02 14° SSE 09:00:55 22° SE 09:03:31 10° ENE
ERS-1 4.5 08:56:34 10° N 09:01:38 71° WNW 09:05:26 17° SSW
Okean 2 4.2 09:00:01 10° N 09:04:01 52° E 09:07:59 10° SSE
Cosmos 1464 Rocket 4.1 08:58:22 10° S 09:04:44 83° E 09:11:08 10° N
Cosmos 1697 Rocket 3.5 09:00:10 10° NW 09:05:01 31° WSW 09:08:43 15° SSW
Cosmos 1271 Rocket 3.2 09:04:38 10° N 09:08:22 59° ENE 09:12:03 10° SSE
Cosmos 1263 4.1 09:06:20 10° NNW 09:09:18 66° W 09:12:02 13° S
Cosmos 1763 Rocket 3.5 09:06:26 10° NNW 09:11:43 78° WSW 09:17:01 10° SSE
CZ-2D R/B 3.5 09:07:45 10° N 09:12:06 77° WNW 09:15:42 14° SSW
CZ-2D R/B 4.1 09:09:27 10° NNW 09:12:22 15° WNW 09:15:17 10° W
Cosmos 2082 Rocket 3.2 09:09:56 15° WSW 09:13:58 34° WNW 09:19:09 10° N
Cosmos 2034 Rocket 4.2 09:09:34 10° S 09:15:41 72° E 09:21:50 10° NNE
Cosmos 1833 Rocket 4.4 09:13:22 10° W 09:17:30 21° NW 09:21:38 10° N
Cosmos 1674 Rocket 4.4 09:13:46 10° NNW 09:17:37 31° W 09:20:31 15° SW
Abrixas rocket 1.8 09:15:25 10° WNW 09:18:19 89° S 09:21:11 10° ESE
Cosmos 1544 3.0 09:17:21 14° SSW 09:20:24 73° W 09:23:59 10° N
ISS -3.3 09:17:05 10° NW 09:20:26 64° NNE 09:23:45 10° ESE
Cosmos 468 Rocket 4.2 09:18:13 10° NNW 09:23:23 52° WSW 09:28:30 10° S
NOSS 3-2 (C) 4.1 09:19:00 10° S 09:24:19 48° ESE 09:30:18 10° NE
Cosmos 1743 3.6 09:22:56 16° SW 09:25:25 32° WNW 09:28:55 10° NNW
Cosmos 1782 Rocket 3.5 09:21:56 10° S 09:26:23 78° W 09:30:50 10° N
Cosmos 1570 Rocket 4.2 09:21:26 10° NNW 09:26:44 81° ENE 09:32:01 10° SSE
COSMOS 2441 4.4 09:29:49 10° NNE 09:34:39 82° ESE 09:39:26 10° S
NOSS 3-2 (A) 3.4 09:31:00 11° SW 09:36:23 87° WNW 09:42:49 10° NE
Landsat 5 3.2 09:34:18 10° S 09:38:12 69° WSW 09:42:03 10° NNW
Cosmos 540 Rocket 3.5 09:33:33 10° NNW 09:38:44 89° WSW 09:43:53 10° SSE
Cosmos 1242 Rocket 3.6 09:36:17 10° NW 09:39:09 25° W 09:42:03 10° SSW
Cosmos 841 Rocket 3.5 09:34:24 10° NNW 09:39:36 84° WSW 09:44:47 10° SSE
ARIANE 5 R/B 3.5 09:35:40 10° N 09:40:10 32° WNW 09:44:41 10° SW
SL-08 R/B 4.5 09:37:21 10° SSW 09:41:12 24° W 09:45:06 10° NW
Cosmos 2322 Rocket 2.7 09:35:34 10° NNW 09:41:13 66° ENE 09:46:51 10° SSE
Meteor 2-9 Rocket 4.1 09:37:55 10° SSW 09:43:12 71° W 09:48:34 10° N
ADEOS II 3.9 09:45:37 10° NNW 09:48:51 17° WNW 09:52:06 10° W
SL-24 R/B - RUBIN 2 4.5 09:43:58 10° NW 09:50:39 76° WSW 09:56:46 10° SSE
Cosmos 1818 3.8 09:45:45 10° NW 09:50:57 46° WSW 09:56:06 10° S
Sich 1 Rocket 3.7 09:46:38 10° SSW 09:51:09 68° W 09:55:39 10° N
Intercosmos 25 Rocket 4.2 09:53:11 10° NNW 09:57:18 59° W 10:03:50 10° S
deb Chang Zheng 4 3.8 09:53:25 10° NNE 09:57:42 74° ESE 10:01:59 10° S
CZ-4B R/B 2.1 09:55:59 10° SSE 09:59:26 63° ENE 10:02:53 10° N
Cosmos 1092 Rocket 4.2 09:54:05 10° N 10:00:28 87° E 10:06:46 10° S
